Torna al catalogo

COSMOS 1275 DEB

AttivoPO
NORAD 14407·DEBRIS·🇷🇺 Russia

Lanciato Jun 4, 1981 da Plesetsk Cosmodrome

Loading…

Prossimi Passaggi (prossime 24 ore)

TLE

AggiornatoSource: Space-Track

Epoca: Sep 14, 2026, 04:54 UTC

1 14407U 81053JC  26257.20468756  .00002048  00000-0  88998-3 0  9992
2 14407  82.7678 175.4936 0042961 351.9065   8.1419 14.23248085234584

Traccia COSMOS 1275 DEB in tempo reale con AllMySat

Download on the App Store